Regional Weather Roundup
Issued by NWS

Home | Current Version | Previous Version | Graphics & Text | Print | Product List | Glossary On
Versions: 1 2 3 4 5 6 7 8 9 10 11 12 13 14 15 16 17 18 19 20 21 22 23 24 25 26 27 28 29 30 31 32 33 34 35 36 37 38 39 40 41 42 43 44 45 46 47 48 49 50
000
ASUS43 KMPX 250901
RWRMN
WEATHER ROUNDUP FOR MINNESOTA
NATIONAL WEATHER SERVICE TWIN CITIES/CHANHASSEN MN
400 AM CDT MON SEP 25 2017


NOTE: "FAIR" INDICATES FEW OR NO CLOUDS BELOW 12,000 FEET WITH NO
SIGNIFICANT WEATHER AND/OR OBSTRUCTIONS TO VISIBILITY. N/A MEANS
CURRENT SKY AND/OR WEATHER CONDITIONS ARE NOT AVAILABLE.

MNZ060>063-068>070-251000-
   Twin Cities Metro

CITY           SKY/WX    TMP DP  RH WIND       PRES   REMARKS
TWIN CITIES    LGT RAIN  65  65 100 NW7       29.94F
ST PAUL        LGT RAIN  66  65  96 N8        29.94F
CRYSTAL        RAIN      62  59  90 NW5       29.95F FOG
BLAINE         LGT RAIN  64  64 100 W6        29.96S
LAKEVILLE      DRIZZLE   63  63 100 CALM      29.94F
EDEN PRAIRIE   LGT RAIN  63  62  97 NW9       29.93F
SOUTH ST PAUL  LGT RAIN  65  64  97 NW5       29.94F
LAKE ELMO      LGT RAIN  64  64 100 NW7       29.96S
$$
MNZ001>005-007-008-013>017-022>024-027-028-251000-
   Northwest Minnesota

CITY           SKY/WX    TMP DP  RH WIND       PRES   REMARKS
BEMIDJI        CLOUDY    47  47  99 NW6       30.00S FOG
HALLOCK        CLOUDY    48  46  93 NW12G17   30.06R
ROSEAU         CLOUDY    48  43  81 NW9       30.02R HAZE
WARROAD        CLOUDY    46  43  87 NW10      30.01R
CROOKSTON      CLOUDY    48  48 100 N13       30.06R
FOSSTON        CLOUDY    46  46 100 NW12G17   30.03S FOG
DETROIT LAKES  CLOUDY    48  46  93 N12       30.04S
MOORHEAD       CLOUDY    50  48  93 NW10      30.06R
PARK RAPIDS    CLOUDY    49  46  90 NW8       30.00S
MAHNOMEN       CLOUDY    48  47  97 NW9       30.03R
$$
MNZ006-009>011-018-025>026-251000-
   North Central Minnesota

CITY           SKY/WX    TMP DP  RH WIND       PRES   REMARKS
BAUDETTE       CLOUDY    50  49  96 W8        29.97S
FLAG ISLAND    CLOUDY    48  46  93 NW14      29.97S
INTL FALLS     CLOUDY    50  49  96 W8        29.95R FOG
WASKISH        CLOUDY    50  48  93 NW9       29.99R
BIG FORK       DRIZZLE   52  48  87 NW5       29.98R
LONGVILLE      CLOUDY    52  50  93 W5        29.99R FOG
GRAND RAPIDS   MOCLDY    52  50  93 NW13      29.99R
CRANE LAKE     CLOUDY    52  52 100 CALM      29.96R FOG
ORR            CLOUDY    52  48  87 W6        29.94R FOG
WALKER         CLOUDY    47  46  98 NW8       30.00R
$$
MNZ012-019>021-037-251000-
   Northeast Minnesota

CITY           SKY/WX    TMP DP  RH WIND       PRES   REMARKS
DULUTH         CLOUDY    59  59 100 NW12      29.93R
ELY            CLOUDY    57  55  94 W9        29.92R
HIBBING        CLOUDY    52  51  97 NW8       29.95R
EVELETH        CLOUDY    55  55  98 W7        29.96R
DULUTH HARBOR  CLOUDY    66  63  88 W10       29.91S
TWO HARBORS    MOCLDY    66  61  82 NW6       29.88R
SILVER BAY     CLOUDY    64  64 100 CALM      29.87S
$$
MNZ029>031-032-039>041-046>048-054>057-064-251000-
   West Central Minnesota

CITY           SKY/WX    TMP DP  RH WIND       PRES   REMARKS
FERGUS FALLS   CLOUDY    50  50 100 N8        30.04S
WHEATON        CLOUDY    52  46  82 NW8       30.06S
MORRIS         CLOUDY    52  48  87 N12       30.02S
ALEXANDRIA     CLOUDY    51  49  92 NW6       30.02S
ELBOW LAKE     CLOUDY    49  49  99 NW7       30.04S
WADENA         CLOUDY    48  48 100 NW5       30.02R
GLENWOOD       CLOUDY    52  50  93 NW7       30.01F
APPLETON       LGT RAIN  52  48  87 N12       30.03S
BENSON         LGT RAIN  52  48  87 N10       30.03S
ORTONVILLE     LGT RAIN  52  48  87 N6        30.03F
MADISON        LGT RAIN  54  54 100 N9        30.02F
WILLMAR        LGT RAIN  54  54 100 NW6       30.03R
$$
MNZ033>034-036-042>043-049>051-058-059-251000-
   Central Minnesota

CITY           SKY/WX    TMP DP  RH WIND       PRES   REMARKS
ST CLOUD       CLOUDY    55  54  96 NW10      29.99R
SAUK CENTRE    CLOUDY    52  50  92 NW8       30.01S
PAYNESVILLE    CLOUDY    54  52  94 NW7       30.00S
AITKIN         CLOUDY    54  52  94 NW7       29.97R
PINE RIVER     CLOUDY    48  46  93 W5        30.03R
BRAINERD       CLOUDY    53  50  89 NW7       29.99S
STAPLES        PTCLDY    48  46  93 NW6       30.01R
LITTLE FALLS   CLOUDY    52  46  82 NW6       30.00R
LITCHFIELD     CLOUDY    55  55 100 NW5       30.01R
BUFFALO        CLOUDY    58  56  91 W7        29.99R
MAPLE LAKE     CLOUDY    58  57  97 NW7       30.00R
HUTCHINSON     HVY RAIN  56  55  95 NW7       30.02R
$$
MNZ037-044-045-052-053-251000-
   East Central Minnesota

CITY           SKY/WX    TMP DP  RH WIND       PRES   REMARKS
PRINCETON      LGT RAIN  59  57  94 NW6       29.98R
MORA           DRIZZLE   55  54  94 NW6       29.98R
CAMBRIDGE      RAIN      63  59  88 NW5       29.96R
RUSH CITY      CLOUDY    62  60  94 W5        29.95R
MOOSE LAKE     CLOUDY    59  55  88 NW7       29.94R
HINCKLEY       CLOUDY    61  59  94 W5        29.96R
CLOQUET        CLOUDY    59  55  88 NW8       29.94R
MCGREGOR       CLOUDY    54  52  94 NW8       29.98R
$$
MNZ071>073-080-081-089-090-097-098-251000-
   Southwest Minnesota

CITY           SKY/WX    TMP DP  RH WIND       PRES   REMARKS
MONTEVIDEO     LGT RAIN  52  50  93 N7        30.03R
GRANITE FALLS  LGT RAIN  54  52  92 NW8       30.03S
CANBY          LGT RAIN  52  51  95 N7        30.04R
MARSHALL       RAIN      52  51  97 VRB5      30.05R
REDWOOD FALLS  RAIN      53  51  93 N8        29.99F FOG
OLIVIA         LGT RAIN  54  52  94 NW8       30.00R
PIPESTONE      DRIZZLE   52  50  93 N5        30.02F
WINDOM         LGT RAIN  55  54  94 NW10      30.00R
WORTHINGTON    LGT RAIN  54  53  97 N14       30.00S
JACKSON        FLURRIES  54  54 100 N10       29.98S
TRACY          HVY RAIN  53  53  99 NW8       30.04R
SLAYTON        HVY RAIN  52  45  77 NW9       30.04R
$$
MNZ065>067-074>077-082>085-091>093-251000-
   South Central Minnesota

CITY           SKY/WX    TMP DP  RH WIND       PRES   REMARKS
MANKATO        LGT RAIN  59  58  96 W12       29.98R
NEW ULM        HVY RAIN  55  54  94 NW12G18   29.99R
ST JAMES       RAIN      55  54  94 NW8G16    29.99R
FAIRMONT       RAIN      57  55  93 N9        29.99R
FARIBAULT      CLOUDY    63  63 100 CALM      29.95S
OWATONNA       CLOUDY    63  63 100 CALM      29.95F
WASECA         CLOUDY    63  61  94 NW5       29.97R
ALBERT LEA     CLOUDY    66  64  94 N7        29.95S
$$
MNZ078>079-086>088-094>096-251000-
   Southeast Minnesota

CITY           SKY/WX    TMP DP  RH WIND       PRES   REMARKS
ROCHESTER      CLOUDY    64  62  93 NW5       29.96S
RED WING       CLOUDY    70  64  83 W3        29.93S
STANTON        CLOUDY    65  63  91 CALM      29.93F
DODGE CENTER   CLOUDY    66  64  94 N7        29.96S
WINONA         CLEAR     70  64  83 NW3       29.94R
AUSTIN         MOCLDY    64  63  94 CALM      29.95S
PRESTON        CLEAR     63  60  88 W5        29.95F
$$
ABBREVIATIONS USED IN REMARKS
   TC - TEMPERATURES IN CELSIUS
  WCI - WIND CHILL INDEX
   HX - HEAT INDEX
  VSB - VISIBILITY
$$




USA.gov is the U.S. government's official web portal to all federal, state and local government web resources and services.